Regional Weather Roundup
Issued by NWS State College, PA

Home | Current Version | Previous Version | Text Only | Print | Product List | Glossary On
Versions: 1 2 3 4 5 6 7 8 9 10 11 12 13 14 15 16 17 18 19 20 21 22 23 24 25 26 27 28 29 30 31 32 33 34 35 36 37 38 39 40 41 42 43 44 45 46 47 48 49 50
000
ASUS41 KCTP 302210
RWRCTP

REGIONAL WEATHER ROUNDUP
NATIONAL WEATHER SERVICE STATE COLLEGE PA
600 PM EDT THU MAR 30 2017

Note: "fair" indicates few or no clouds below 12,000 feet with no
significant weather and/or obstructions to visibility.

* = STATION THAT DOES NOT REPORT PRECIPITATION /E.G. RAIN...SNOW...ETC/
    THUNDER OR FOG.

PAZ002>004-007>009-013>016-020>023-029>032-302300-
WESTERN PENNSYLVANIA

CITY           SKY/WX    TMP DP  RH WIND       PRES   REMARKS
ERIE           TSTM      40  35  83 E10       29.83F
MEADVILLE      CLOUDY    42  34  73 E9        29.83S
FRANKLIN*      CLOUDY    41  32  70 E13G25    29.85F
NEW CASTLE     FAIR      51  40  65 E8        29.81F
BEAVER COUNTY  SUNNY     52  43  71 SE5       29.81F
BUTLER*        CLOUDY    52  41  66 E10G20    29.82F
PITTSBURGH INT CLOUDY    55  43  63 E13       29.79F
PITTSBURGH     CLOUDY    56  41  57 E14       29.80F
INDIANA*       PTSUNNY   46  37  71 SE21G28   29.90F
LATROBE        PTSUNNY   52  37  58 S12G21    29.85F
WASHINGTON CO* CLOUDY    59  46  63 E3        29.80F
$$

PAZ004>006-010>012-017>019-024>028-033>037-041-042-045-046-049>053-302300-
CENTRAL PENNSYLVANIA

CITY           SKY/WX    TMP DP  RH WIND       PRES   REMARKS
BRADFORD       LGT RAIN  33  31  92 SE17      29.92F
DUBOIS         CLOUDY    40  31  70 E15G24    29.90S
CLEARFIELD     LGT RAIN  39  35  86 E9        29.97F
JOHNSTOWN      TSTM      41  34  76 SE12G24   29.92S
ALTOONA        CLOUDY    44  35  70 SE13      29.99F
STATE COLLEGE  CLOUDY    41  30  65 SE9       30.02F
WILLIAMSPORT   LGT RAIN  41  35  79 NE8       30.07F
SELINSGROVE    CLOUDY    45  33  63 SE9       30.08F
FT INDIANTOWN  CLOUDY    44  33  64 S7        30.10R
CAPITAL CITY   CLOUDY    46  30  53 SE9       30.10F
HARRISBURG     CLOUDY    45  34  65 SE9       30.09S
YORK           CLOUDY    46  31  55 SE6       30.08S
$$

PAZ038>040-043-044-047-048-054-055-060>062-067>071-302300-
EASTERN PENNSYLVANIA

CITY           SKY/WX    TMP DP  RH WIND       PRES   REMARKS
SCRANTON       LGT RAIN  46  26  45 CALM      30.09R
MOUNT POCONO   LGT RAIN  39  25  57 S5        30.06F
ALLENTOWN      CLOUDY    48  25  40 SE6       30.11F
QUAKERTOWN*    CLOUDY    46  27  46 SE7       30.12F
READING        CLOUDY    47  31  53 SE6       30.10F
LANCASTER      CLOUDY    46  33  60 SE9       30.10F
COATESVILLE    CLOUDY    45  28  53 VRB6      30.12F
POTTSTOWN      LGT RAIN  45  32  60 VRB3      30.11F
BLUE BELL      CLOUDY    46  30  53 SE3       30.10F
DOYLESTOWN     CLOUDY    46  24  42 CALM      30.12F
WILLOW GROVE   NOT AVBL
NORTH PHILA    CLOUDY    50  26  39 SE7       30.14F
PHILADELPHIA   CLOUDY    48  29  47 S10       30.14F
$$



USA.gov is the U.S. government's official web portal to all federal, state and local government web resources and services.